Tracking 25710 objects as of 5-Jul-2022
HD Live streaming from Space Station
objects crossing your sky now

FENGYUN 1C DEB

Track FENGYUN 1C DEB now!
10-day predictions


NORAD ID: 31038
Int'l Code: 1999-025BEG
Perigee: 702.2 km
Apogee: 835.5 km
Inclination: 99.1 °
Period: 100.1 minutes
Semi major axis: 7139 km
RCS: 0.0091 m2 (small)
Launch date: May 10, 1999
Source: People's Republic of China (PRC)
Launch site: Taiyaun Space Center, China (TSC)

Note: This is SATELLITE DEBRIS
aabbcc
Your satellite tracking list
Your tracking list is empty




NASA's NSSDC Master Catalog

Two Line Element Set (TLE):
1 31038U 99025BEG 22185.90843042  .00000580  00000-0  19442-3 0  9994
2 31038  99.0981 175.3049 0093364 342.7686  17.0337 14.39022975801218
Source of the keplerian elements: AFSPC